Terminal Aerodrome Forecast
Issued by NWS

Home | Current Version | Previous Version | Text Only | Print | Product List | Glossary On
Versions: 1 2 3 4 5 6 7 8 9 10 11 12 13 14 15 16 17
000
FTUS43 KSGF 310500
TAFBBG
TAF
KBBG 310520Z 3106/0106 VRB04KT P6SM SCT250
     FM311000 VRB04KT 5SM BR SCT250
     FM311400 19006KT P6SM FEW080 SCT250=

USA.gov is the U.S. government's official web portal to all federal, state and local government web resources and services.